Location: Skalnate Pleso
(49.1889°N, 20.2450°E)
Time: 12:24:00
(UTC+01:00)

SJ 16-02 - Pass Details

Date: 19 November 2019
Orbit: 606 x 616 km, 75.0° (Epoch: 13 December)

Event Time Altitude Azimuth Distance (km) Brightness Sun altitude
Exits shadow 05:10:01 27° 314° (NW) 1,185 2.3 -16.8°
Drops below altitude 10° 05:13:20 10° 2° (N) 1,969 3.8 -16.3°
Sets 05:15:51 0° 15° (NNE) 2,877 4.8 -15.9°
